Printer-friendly version

IAU Minor Planet Center

Minor Planet Center

MPEC 2006-L38 : 2006 LM1

The following Minor Planet Electronic Circular may be linked-to from your own Web pages, but must not otherwise be redistributed electronically.


Read MPEC 2006-L37 Read MPEC 2006-L39


M.P.E.C. 2006-L38                                Issued 2006 June 8, 15:05 UT

     The Minor Planet Electronic Circulars contain information on unusual
         minor planets and routine data on comets.  They are published
   on behalf of Commission 20 of the International Astronomical Union by the
          Minor Planet Center, Smithsonian Astrophysical Observatory,
                          Cambridge, MA 02138, U.S.A.

                  Supported in part by the Brinson Foundation
                  Supported in part by the TABASGO Foundation
             Prepared using the Tamkin Foundation Computer Network

                              MPC@CFA.HARVARD.EDU
          URL http://cfa-www.harvard.edu/iau/mpc.html  ISSN 1523-6714

                                   2006 LM1

Observations:
     K06L01M* C2006 06 03.42476 20 46 51.45 -18 42 38.0          21.3 V EL038G96
     K06L01M  C2006 06 03.43145 20 46 50.88 -18 42 41.8          20.8 V EL038G96
     K06L01M  C2006 06 03.43801 20 46 50.34 -18 42 44.3          21.3 V EL038G96
     K06L01M  C2006 06 03.44458 20 46 49.76 -18 42 47.7          21.0 V EL038G96
     K06L01M  C2006 06 03.45328 20 46 48.90 -18 42 51.3          21.1 V EL038G96
     K06L01M  C2006 06 03.45493 20 46 48.79 -18 42 52.2          21.2 V EL038G96
     K06L01M  C2006 06 03.45581 20 46 48.64 -18 42 52.7          21.0 V EL038G96
     K06L01M  C2006 06 03.45669 20 46 48.64 -18 42 53.0          21.3 V EL038G96
     K06L01M  C2006 06 04.40129 20 45 23.40 -18 50 25.5          20.7 V EL038G96
     K06L01M HC2006 06 04.40162 20 45 23.43 -18 50 27.0                 EL038291
     K06L01M  C2006 06 04.40602 20 45 23.00 -18 50 26.8          20.9 V EL038G96
     K06L01M  C2006 06 04.40603 20 45 22.94 -18 50 27.8                 EL038291
     K06L01M  C2006 06 04.41076 20 45 22.57 -18 50 29.3          20.5 V EL038G96
     K06L01M  C2006 06 04.41262 20 45 22.35 -18 50 30.8                 EL038291
     K06L01M  C2006 06 04.41550 20 45 22.06 -18 50 32.3          20.6 V EL038G96
     K06L01M  C2006 06 04.41701 20 45 21.93 -18 50 32.9                 EL038291
     K06L01M  C2006 06 04.42104 20 45 21.46 -18 50 34.7                 EL038291
     K06L01M  C2006 06 04.43436 20 45 20.30 -18 50 41.6                 EL038291
     K06L01M  C2006 06 04.44454 20 45 19.29 -18 50 45.7                 EL038291
     K06L01M  C2006 06 04.44867 20 45 18.98 -18 50 47.9                 EL038291
     K06L01M  C2006 06 05.44971 20 43 46.30 -18 58 54.0                 EL038G96
     K06L01M  C2006 06 05.45287 20 43 45.98 -18 58 55.8                 EL038G96
     K06L01M  C2006 06 05.45609 20 43 45.69 -18 58 56.8                 EL038G96
     K06L01M  C2006 06 05.45926 20 43 45.40 -18 58 57.9                 EL038G96

Observer details:
291 LPL/Spacewatch II.  Observer R. S. McMillan.  1.8-m f/2.7 reflector + CCD.
G96 Mt. Lemmon Survey.  Observers R. Hill, A. R. Gibbs.  Measurers
    E. C. Beshore, E. J. Christensen, G. J. Garradd, A. R. Gibbs, A. D. Grauer,
    R. E. Hill, R. A. Kowalski, S. M. Larson, R. H. McNaught.  1.5-m reflector
    + CCD.

Orbital elements:
2006 LM1
Epoch 2006 May 25.0 TT = JDT 2453880.5                  MPC
M 359.55499              (2000.0)            P               Q
n   0.00434686     Peri.  201.94078     +0.15504532     -0.98087834
a  37.1836489      Node   120.68507     -0.88484242     -0.08492662
e   0.9001935      Incl.  172.13784     -0.43933454     -0.17511466
P 227              H   14.8           G   0.15
From 24 observations 2006 June 3-5.  E-assumed.

Ephemeris:
2006 LM1                 a,e,i = 37.18, 0.90, 172                q = 3.7112
Date    TT    R. A. (2000) Decl.     Delta      r     Elong.  Phase     V
2006 06 04    20 46.00   -18 47.2    3.127    3.792   124.3    12.8    20.9
2006 06 14    20 29.02   -20 11.9    2.959    3.776   138.1    10.3    20.7
2006 06 24    20 08.31   -21 42.7    2.829    3.761   152.7     7.1    20.5
2006 07 04    19 44.37   -23 11.4    2.749    3.749   167.8     3.3    20.2
2006 07 14    19 18.43   -24 28.8    2.723    3.738   175.8     1.1    20.0
2006 07 24    18 52.21   -25 27.5    2.754    3.728   160.7     5.2    20.3
2006 08 03    18 27.56   -26 05.3    2.839    3.721   145.6     8.9    20.5
2006 08 13    18 05.88   -26 24.9    2.969    3.716   131.2    11.8    20.7
2006 08 23    17 47.90   -26 31.5    3.134    3.713   117.6    14.0    20.9
2006 09 02    17 33.76   -26 30.8    3.323    3.711   104.8    15.2    21.1
2006 09 12    17 23.20   -26 27.2    3.525    3.712    92.7    15.7    21.2
2006 09 22    17 15.75   -26 23.6    3.730    3.714    81.3    15.5    21.4
2006 10 02    17 10.92   -26 21.6    3.932    3.719    70.5    14.7    21.4
2006 10 12    17 08.23   -26 21.8    4.122    3.725    60.0    13.4    21.5

Kyle E. Smalley              (C) Copyright 2006 MPC           M.P.E.C. 2006-L38

Read MPEC 2006-L37 Read MPEC 2006-L39


Our Web policy. Index to the CBAT/MPC/ICQ pages.


Valid HTML 4.01!